Millville, NJ

7:32 PM EST on February 26, 2017 (GMT -0500)
Millville Municipal

Weather History for KMIV - August, 2013

Change the Weather History Date:

Monday, August 26, 2013

  Actual Average Record
Temperature  
Mean Temperature 72 °F -  
Max Temperature 84 °F 84 °F 101 °F (1948)
Min Temperature 62 °F 62 °F 51 °F (1960)
Cooling Degree Days 7    
Growing Degree Days 22 (Base 50)    
Moisture  
Dew Point 62 °F    
Average Humidity 71    
Maximum Humidity 87    
Minimum Humidity 51    
Precipitation  
Precipitation 0.00 in - - ()
Sea Level Pressure  
Sea Level Pressure 30.14 in    
Wind  
Wind Speed 5 mph (SW)    
Max Wind Speed 13 mph    
Max Gust Speed 17 mph    
Visibility 10 miles    
Events      
Averages and records for this station are not official NWS values.
T = Trace of Precipitation, MM = Missing Value Source: NWS Daily Summary

Daily Weather History Graph

Daily Weather History Graph

Search for Another Location

Airport or City:

Trip Planner

Search our weather history database for the weather conditions in past years. The results will help you decide how hot, cold, wet, or windy it might be!

Date:

Astronomy

Aug. 26, 2013 Rise Set
Actual Time 6:23 AM EDT 7:39 PM EDT
Civil Twilight 5:55 AM EDT 8:07 PM EDT
Nautical Twilight 5:22 AM EDT 8:40 PM EDT
Astronomical Twilight 4:47 AM EDT 9:15 PM EDT
Moon 10:51 PM EDT (8/26) 12:20 PM EDT (8/26)
Length of Visible Light 14h 12m
Length of Day
13h 16m
Waning Gibbous, 67% of the Moon is Illuminated
Aug 26
Waning Gibbous
Aug 28
Last Quarter
Sep 5
New
Sep 12
First Quarter
Sep 19
Full

Hourly Weather History & Observations

Time (EDT) Temp. Heat Index Dew Point Humidity Pressure Visibility Wind Dir Wind Speed Gust Speed Precip Events Conditions
12:54 AM 64.0 °F - 59.0 °F 84% 30.29 in 10.0 mi SW 4.6 mph - N/A   Clear
1:54 AM 64.9 °F - 59.0 °F 81% 30.27 in 10.0 mi Calm Calm - N/A   Clear
2:54 AM 64.0 °F - 57.9 °F 80% 30.27 in 10.0 mi Calm Calm - N/A   Clear
3:54 AM 62.1 °F - 57.9 °F 86% 30.26 in 10.0 mi SW 3.5 mph - N/A   Clear
4:54 AM 63.0 °F - 59.0 °F 87% 30.24 in 10.0 mi Calm Calm - N/A   Clear
5:54 AM 64.0 °F - 59.0 °F 84% 30.23 in 10.0 mi SW 3.5 mph - N/A   Clear
6:54 AM 64.0 °F - 59.0 °F 84% 30.24 in 10.0 mi Calm Calm - N/A   Scattered Clouds
7:54 AM 66.0 °F - 61.0 °F 84% 30.25 in 10.0 mi SW 3.5 mph - N/A   Clear
8:54 AM 70.0 °F - 61.0 °F 73% 30.23 in 10.0 mi WSW 9.2 mph - N/A   Clear
9:54 AM 70.0 °F - 60.1 °F 71% 30.23 in 10.0 mi WSW 11.5 mph 17.3 mph N/A   Clear
10:54 AM 73.0 °F - 62.1 °F 68% 30.21 in 10.0 mi WSW 10.4 mph - N/A   Clear
11:54 AM 75.9 °F - 62.1 °F 62% 30.19 in 10.0 mi SW 8.1 mph - N/A   Clear
12:54 PM 79.0 °F - 64.0 °F 60% 30.16 in 10.0 mi WSW 10.4 mph - N/A   Clear
1:54 PM 82.0 °F 83.8 °F 64.9 °F 56% 30.13 in 10.0 mi WSW 8.1 mph - N/A   Clear
2:54 PM 82.9 °F 84.4 °F 64.0 °F 53% 30.09 in 10.0 mi SW 5.8 mph 16.1 mph N/A   Clear
3:54 PM 82.9 °F 84.4 °F 64.0 °F 53% 30.07 in 10.0 mi SW 10.4 mph - N/A   Clear
4:54 PM 82.0 °F 83.0 °F 62.1 °F 51% 30.04 in 10.0 mi West 12.7 mph - N/A   Clear
5:54 PM 80.1 °F 81.5 °F 63.0 °F 56% 30.03 in 10.0 mi SW 4.6 mph - N/A   Clear
6:54 PM 79.0 °F - 64.9 °F 62% 30.01 in 10.0 mi Variable 5.8 mph - N/A   Clear
7:54 PM 75.9 °F - 64.9 °F 69% 30.01 in 10.0 mi SW 3.5 mph - N/A   Clear
8:54 PM 75.0 °F - 66.0 °F 73% 30.02 in 10.0 mi Variable 3.5 mph - N/A   Clear
9:54 PM 75.0 °F - 66.0 °F 73% 30.01 in 10.0 mi SW 4.6 mph - N/A   Clear
10:54 PM 73.9 °F - 66.9 °F 79% 30.01 in 10.0 mi SW 5.8 mph - N/A   Clear
11:54 PM 73.9 °F - 66.9 °F 79% 29.99 in 10.0 mi SW 5.8 mph - N/A   Clear